,,Stat6,,Stat2,,Stat8,,Stat9,,Stat10,,Wind1,,Wind1,
time,status,PA1M_AVG,status,PR1M_SUM,status,RH1M_AVG,status,SR1M_AVG,status,TA1M_AVG,status,W1dAve1m,status,W1sAve1m,
2008-07-22, 00:00:01,VALID,918.245,VALID,0,VALID,100,VALID,-0.101885,VALID,17.3973,VALID,20,VALID,0.283512,
2008-07-22, 00:01:00,VALID,918.255,VALID,0,VALID,100,VALID,-0.118866,VALID,17.4105,VALID,21,VALID,0,
2008-07-22, 00:02:00,VALID,918.271,VALID,0,VALID,100,VALID,-0.169808,VALID,17.3941,VALID,41,VALID,0,
2008-07-22, 00:03:01,VALID,918.302,VALID,0,VALID,100,VALID,-0.152827,VALID,17.4202,VALID,51,VALID,0.328683,
2008-07-22, 00:04:00,VALID,918.337,VALID,0,VALID,100,VALID,-0.101885,VALID,17.4202,VALID,52,VALID,0.640625,
2008-07-22, 00:05:00,VALID,918.366,VALID,0,VALID,100,VALID,-0.101885,VALID,17.43,VALID,52,VALID,0.132994,
2008-07-22, 00:06:01,VALID,918.381,VALID,0,VALID,100,VALID,-0.101885,VALID,17.4231,VALID,52,VALID,0,
2008-07-22, 00:07:01,VALID,918.383,VALID,0,VALID,100,VALID,-0.101885,VALID,17.4131,VALID,69,VALID,0.123047,
2008-07-22, 00:08:00,VALID,918.371,VALID,0,VALID,100,VALID,-0.135847,VALID,17.3971,VALID,149,VALID,0.840588,
2008-07-22, 00:09:01,VALID,918.364,VALID,0,VALID,100,VALID,-0.0849042,VALID,17.3973,VALID,166,VALID,1.14577,
2008-07-22, 00:10:00,VALID,918.348,VALID,0,VALID,100,VALID,-0.101885,VALID,17.3973,VALID,168,VALID,0.926639,
2008-07-22, 00:11:00,VALID,918.328,VALID,0,VALID,100,VALID,-0.118866,VALID,17.3876,VALID,165,VALID,0.702592,
2008-07-22, 00:12:01,VALID,918.296,VALID,0,VALID,100,VALID,-0.101885,VALID,17.3876,VALID,166,VALID,0.256641,
2008-07-22, 00:13:01,VALID,918.269,VALID,0,VALID,100,VALID,-0.101885,VALID,17.3941,VALID,166,VALID,0,
2008-07-22, 00:14:00,VALID,918.245,VALID,0,VALID,100,VALID,-0.101885,VALID,17.3841,VALID,166,VALID,0,
2008-07-22, 00:15:00,VALID,918.247,VALID,0,VALID,100,VALID,-0.101885,VALID,17.4138,VALID,139,VALID,0,
2008-07-22, 00:16:00,VALID,918.238,VALID,0,VALID,100,VALID,-0.135847,VALID,17.4267,VALID,97,VALID,0,
2008-07-22, 00:17:00,VALID,918.235,VALID,0,VALID,100,VALID,-0.118866,VALID,17.4004,VALID,73,VALID,0,
2008-07-22, 00:18:00,VALID,918.242,VALID,0,VALID,100,VALID,-0.118866,VALID,17.3844,VALID,73,VALID,0,
2008-07-22, 00:19:00,VALID,918.251,VALID,0,VALID,100,VALID,-0.101885,VALID,17.3813,VALID,73,VALID,0,
2008-07-22, 00:20:01,VALID,918.265,VALID,0,VALID,100,VALID,-0.118866,VALID,17.3647,VALID,73,VALID,0,
2008-07-22, 00:21:00,VALID,918.271,VALID,0,VALID,100,VALID,-0.101885,VALID,17.3844,VALID,70,VALID,0,
2008-07-22, 00:22:01,VALID,918.273,VALID,0,VALID,100,VALID,-0.135847,VALID,17.4561,VALID,67,VALID,0,
2008-07-22, 00:23:01,VALID,918.272,VALID,0,VALID,100,VALID,-0.101885,VALID,17.5009,VALID,67,VALID,0,
2008-07-22, 00:24:00,VALID,918.261,VALID,0,VALID,100,VALID,-0.118866,VALID,17.543,VALID,67,VALID,0,
2008-07-22, 00:25:00,VALID,918.247,VALID,0,VALID,100,VALID,-0.101885,VALID,17.5659,VALID,66,VALID,0,
2008-07-22, 00:26:00,VALID,918.229,VALID,0,VALID,100,VALID,-0.101885,VALID,17.5755,VALID,65,VALID,0,
2008-07-22, 00:27:00,VALID,918.19,VALID,0,VALID,100,VALID,-0.101885,VALID,17.5886,VALID,48,VALID,0,
2008-07-22, 00:28:00,VALID,918.174,VALID,0,VALID,100,VALID,-0.118866,VALID,17.6148,VALID,30,VALID,0,
2008-07-22, 00:29:00,VALID,918.141,VALID,0,VALID,100,VALID,-0.101885,VALID,17.6273,VALID,15,VALID,0.190952,
2008-07-22, 00:30:00,VALID,918.126,VALID,0,VALID,100,VALID,-0.118866,VALID,17.6505,VALID,7,VALID,0.326126,
2008-07-22, 00:31:00,VALID,918.103,VALID,0,VALID,100,VALID,-0.0849042,VALID,17.657,VALID,7,VALID,0,
2008-07-22, 00:32:00,VALID,918.099,VALID,0,VALID,100,VALID,-0.101885,VALID,17.6503,VALID,7,VALID,0,
2008-07-22, 00:33:00,VALID,918.103,VALID,0,VALID,100,VALID,-0.101885,VALID,17.6375,VALID,7,VALID,0,
2008-07-22, 00:34:01,VALID,918.088,VALID,0,VALID,100,VALID,-0.118866,VALID,17.6181,VALID,7,VALID,0,
2008-07-22, 00:35:00,VALID,918.087,VALID,0,VALID,100,VALID,-0.118866,VALID,17.6079,VALID,14,VALID,0,
2008-07-22, 00:36:00,VALID,918.081,VALID,0,VALID,100,VALID,-0.101885,VALID,17.6181,VALID,16,VALID,0,
2008-07-22, 00:37:00,VALID,918.073,VALID,0,VALID,100,VALID,-0.118866,VALID,17.6146,VALID,16,VALID,0,
2008-07-22, 00:38:00,VALID,918.078,VALID,0,VALID,100,VALID,-0.101885,VALID,17.6018,VALID,16,VALID,0,
2008-07-22, 00:39:01,VALID,918.082,VALID,0,VALID,100,VALID,-0.101885,VALID,17.588,VALID,16,VALID,0,
2008-07-22, 00:40:01,VALID,918.087,VALID,0,VALID,100,VALID,-0.101885,VALID,17.5951,VALID,16,VALID,0,
2008-07-22, 00:41:01,VALID,918.078,VALID,0,VALID,100,VALID,-0.101885,VALID,17.5791,VALID,16,VALID,0,
2008-07-22, 00:42:01,VALID,918.051,VALID,0,VALID,100,VALID,-0.118866,VALID,17.5884,VALID,16,VALID,0,
2008-07-22, 00:43:00,VALID,918.037,VALID,0,VALID,100,VALID,-0.135847,VALID,17.6021,VALID,16,VALID,0,
2008-07-22, 00:44:01,VALID,918.009,VALID,0,VALID,100,VALID,-0.152827,VALID,17.6016,VALID,16,VALID,0,
2008-07-22, 00:45:01,VALID,917.972,VALID,0,VALID,100,VALID,-0.118866,VALID,17.6113,VALID,16,VALID,0,
2008-07-22, 00:46:01,VALID,917.956,VALID,0,VALID,100,VALID,-0.169808,VALID,17.6146,VALID,7,VALID,0.327934,
2008-07-22, 00:47:01,VALID,917.936,VALID,0,VALID,100,VALID,-0.135847,VALID,17.6243,VALID,4,VALID,0.398819,
2008-07-22, 00:48:01,VALID,917.936,VALID,0,VALID,100,VALID,-0.118866,VALID,17.628,VALID,317,VALID,0.482851,
2008-07-22, 00:49:01,VALID,917.918,VALID,0,VALID,100,VALID,-0.118866,VALID,17.6144,VALID,305,VALID,0.0676448,
2008-07-22, 00:50:01,VALID,917.921,VALID,0,VALID,100,VALID,-0.118866,VALID,17.6018,VALID,305,VALID,0,
2008-07-22, 00:51:01,VALID,917.927,VALID,0,VALID,100,VALID,-0.101885,VALID,17.5988,VALID,305,VALID,0,
2008-07-22, 00:52:01,VALID,917.906,VALID,0,VALID,100,VALID,-0.152827,VALID,17.5724,VALID,305,VALID,0,
2008-07-22, 00:53:00,VALID,917.913,VALID,0,VALID,100,VALID,-0.135847,VALID,17.5368,VALID,305,VALID,0,
2008-07-22, 00:54:00,VALID,917.901,VALID,0,VALID,100,VALID,-0.118866,VALID,17.4754,VALID,305,VALID,0,
2008-07-22, 00:55:00,VALID,917.9,VALID,0,VALID,100,VALID,-0.101885,VALID,17.4163,VALID,305,VALID,0,
2008-07-22, 00:56:00,VALID,917.908,VALID,0,VALID,100,VALID,-0.118866,VALID,17.4038,VALID,305,VALID,0,
2008-07-22, 00:57:00,VALID,917.926,VALID,0,VALID,100,VALID,-0.135847,VALID,17.3813,VALID,305,VALID,0,
2008-07-22, 00:58:00,VALID,917.946,VALID,0,VALID,100,VALID,-0.118866,VALID,17.3619,VALID,305,VALID,0,
2008-07-22, 00:59:00,VALID,917.964,VALID,0,VALID,100,VALID,-0.118866,VALID,17.3976,VALID,314,VALID,0,
2008-07-22, 01:00:00,VALID,917.965,VALID,0,VALID,100,VALID,-0.118866,VALID,17.4367,VALID,351,VALID,0,
2008-07-22, 01:01:00,VALID,917.983,VALID,0,VALID,100,VALID,-0.101885,VALID,17.4561,VALID,2,VALID,0,
2008-07-22, 01:02:00,VALID,917.99,VALID,0,VALID,100,VALID,-0.135847,VALID,17.4587,VALID,2,VALID,0,
2008-07-22, 01:03:00,VALID,917.995,VALID,0,VALID,100,VALID,-0.118866,VALID,17.4589,VALID,2,VALID,0,
2008-07-22, 01:04:00,VALID,918.009,VALID,0,VALID,100,VALID,-0.101885,VALID,17.4522,VALID,2,VALID,0,
2008-07-22, 01:05:00,VALID,918.006,VALID,0,VALID,100,VALID,-0.118866,VALID,17.4423,VALID,3,VALID,0,
2008-07-22, 01:06:00,VALID,918.014,VALID,0,VALID,100,VALID,-0.101885,VALID,17.4263,VALID,3,VALID,0,
2008-07-22, 01:07:00,VALID,917.995,VALID,0,VALID,100,VALID,-0.118866,VALID,17.446,VALID,3,VALID,0,
2008-07-22, 01:08:00,VALID,918.005,VALID,0,VALID,100,VALID,-0.152827,VALID,17.4557,VALID,17,VALID,0.553052,
2008-07-22, 01:09:00,VALID,917.994,VALID,0,VALID,100,VALID,-0.135847,VALID,17.4788,VALID,36,VALID,0.938453,
2008-07-22, 01:10:00,VALID,918.014,VALID,0,VALID,100,VALID,-0.118866,VALID,17.5203,VALID,36,VALID,0.751453,
2008-07-22, 01:11:00,VALID,918.005,VALID,0,VALID,100,VALID,-0.135847,VALID,17.5657,VALID,36,VALID,0.0273438,
2008-07-22, 01:12:00,VALID,917.995,VALID,0,VALID,100,VALID,-0.118866,VALID,17.6248,VALID,36,VALID,0.682049,
2008-07-22, 01:13:00,VALID,917.978,VALID,0,VALID,100,VALID,-0.118866,VALID,17.6531,VALID,33,VALID,0.615282,
2008-07-22, 01:14:00,VALID,917.943,VALID,0,VALID,100,VALID,-0.118866,VALID,17.6304,VALID,27,VALID,0.837536,
2008-07-22, 01:15:00,VALID,917.917,VALID,0,VALID,100,VALID,-0.135847,VALID,17.5757,VALID,26,VALID,0.904978,
2008-07-22, 01:16:00,VALID,917.889,VALID,0,VALID,100,VALID,-0.0509425,VALID,17.5687,VALID,24,VALID,0.954327,
2008-07-22, 01:17:00,VALID,917.86,VALID,0,VALID,100,VALID,-0.118866,VALID,17.569,VALID,18,VALID,0.799419,
2008-07-22, 01:18:00,VALID,917.86,VALID,0,VALID,100,VALID,-0.0509425,VALID,17.5463,VALID,7,VALID,0.207961,
2008-07-22, 01:19:00,VALID,917.846,VALID,0,VALID,100,VALID,-0.101885,VALID,17.5205,VALID,7,VALID,0,
2008-07-22, 01:20:00,VALID,917.832,VALID,0,VALID,100,VALID,-0.135847,VALID,17.4782,VALID,7,VALID,0,
2008-07-22, 01:21:00,VALID,917.802,VALID,0,VALID,100,VALID,-0.135847,VALID,17.4948,VALID,344,VALID,0,
2008-07-22, 01:22:00,VALID,917.778,VALID,0,VALID,100,VALID,-0.135847,VALID,17.5113,VALID,340,VALID,0,
2008-07-22, 01:23:00,VALID,917.76,VALID,0,VALID,100,VALID,-0.101885,VALID,17.4814,VALID,337,VALID,0,
2008-07-22, 01:24:00,VALID,917.752,VALID,0,VALID,100,VALID,-0.101885,VALID,17.4557,VALID,337,VALID,0,
2008-07-22, 01:25:00,VALID,917.737,VALID,0,VALID,100,VALID,-0.118866,VALID,17.4328,VALID,337,VALID,0,
2008-07-22, 01:26:00,VALID,917.733,VALID,0,VALID,100,VALID,-0.101885,VALID,17.4004,VALID,354,VALID,0.17168,
2008-07-22, 01:27:00,VALID,917.724,VALID,0,VALID,100,VALID,-0.0509425,VALID,17.4291,VALID,3,VALID,0.800495,
2008-07-22, 01:28:00,VALID,917.711,VALID,0,VALID,100,VALID,-0.0679233,VALID,17.4555,VALID,359,VALID,0.897017,
2008-07-22, 01:29:00,VALID,917.712,VALID,0,VALID,100,VALID,-0.0679233,VALID,17.468,VALID,1,VALID,0.809211,
2008-07-22, 01:30:00,VALID,917.684,VALID,0,VALID,100,VALID,-0.0849042,VALID,17.4816,VALID,352,VALID,1.04021,
2008-07-22, 01:31:00,VALID,917.665,VALID,0,VALID,100,VALID,-0.0679233,VALID,17.4849,VALID,353,VALID,0.65483,
2008-07-22, 01:32:00,VALID,917.646,VALID,0,VALID,100,VALID,-0.101885,VALID,17.4747,VALID,355,VALID,0.00576637,
2008-07-22, 01:33:00,VALID,917.634,VALID,0,VALID,100,VALID,-0.0509425,VALID,17.4747,VALID,334,VALID,0,
2008-07-22, 01:34:00,VALID,917.613,VALID,0,VALID,100,VALID,-0.0679233,VALID,17.4782,VALID,316,VALID,0,
2008-07-22, 01:35:00,VALID,917.591,VALID,0,VALID,100,VALID,-0.0679233,VALID,17.5039,VALID,355,VALID,0.782774,
2008-07-22, 01:36:00,VALID,917.607,VALID,0,VALID,100,VALID,-0.101885,VALID,17.5009,VALID,13,VALID,0.838246,
2008-07-22, 01:37:00,VALID,917.607,VALID,0,VALID,100,VALID,-0.0679233,VALID,17.4944,VALID,2,VALID,0.77691,
2008-07-22, 01:38:00,VALID,917.589,VALID,0,VALID,100,VALID,-0.101885,VALID,17.4881,VALID,9,VALID,0.273801,
2008-07-22, 01:39:00,VALID,917.598,VALID,0,VALID,100,VALID,-0.0679233,VALID,17.4678,VALID,353,VALID,0.287574,
2008-07-22, 01:40:00,VALID,917.6,VALID,0,VALID,100,VALID,-0.0509425,VALID,17.4425,VALID,4,VALID,0.12609,
2008-07-22, 01:41:00,VALID,917.606,VALID,0,VALID,100,VALID,-0.0509425,VALID,17.4488,VALID,7,VALID,0.211914,
2008-07-22, 01:42:00,VALID,917.614,VALID,0,VALID,100,VALID,-0.0849042,VALID,17.4684,VALID,8,VALID,0.446837,
2008-07-22, 01:43:00,VALID,917.635,VALID,0,VALID,100,VALID,-0.0849042,VALID,17.4842,VALID,14,VALID,0.59566,
2008-07-22, 01:44:00,VALID,917.642,VALID,0,VALID,100,VALID,-0.0849042,VALID,17.5106,VALID,15,VALID,0,
2008-07-22, 01:45:00,VALID,917.636,VALID,0,VALID,100,VALID,-0.0849042,VALID,17.5534,VALID,19,VALID,0.000177557,
2008-07-22, 01:46:00,VALID,917.632,VALID,0,VALID,100,VALID,-0.0849042,VALID,17.5692,VALID,29,VALID,0.957217,
2008-07-22, 01:47:00,VALID,917.652,VALID,0,VALID,100,VALID,-0.0679233,VALID,17.575,VALID,27,VALID,0.249599,
2008-07-22, 01:48:00,VALID,917.642,VALID,0,VALID,100,VALID,-0.0339617,VALID,17.6107,VALID,12,VALID,0.751803,
2008-07-22, 01:49:00,VALID,917.633,VALID,0,VALID,100,VALID,-0.0509425,VALID,17.663,VALID,11,VALID,0.646802,
2008-07-22, 01:50:00,VALID,917.632,VALID,0,VALID,100,VALID,-0.0679233,VALID,17.6431,VALID,17,VALID,0.49301,
2008-07-22, 01:51:00,VALID,917.626,VALID,0,VALID,100,VALID,-0.0679233,VALID,17.6332,VALID,20,VALID,1.09048,
2008-07-22, 01:52:00,VALID,917.63,VALID,0,VALID,100,VALID,-0.0509425,VALID,17.669,VALID,21,VALID,1.28761,
2008-07-22, 01:53:00,VALID,917.62,VALID,0,VALID,100,VALID,-0.0509425,VALID,17.695,VALID,30,VALID,0.962139,
2008-07-22, 01:54:00,VALID,917.624,VALID,0,VALID,100,VALID,-0.0509425,VALID,17.6825,VALID,7,VALID,0.734375,
2008-07-22, 01:55:00,VALID,917.627,VALID,0,VALID,100,VALID,-0.0339617,VALID,17.6855,VALID,13,VALID,0.755859,
2008-07-22, 01:56:00,VALID,917.624,VALID,0,VALID,100,VALID,-0.0849042,VALID,17.6952,VALID,20,VALID,1.125,
2008-07-22, 01:57:00,VALID,917.622,VALID,0,VALID,100,VALID,-0.0509425,VALID,17.6917,VALID,17,VALID,1.01126,
2008-07-22, 01:58:00,VALID,917.616,VALID,0,VALID,100,VALID,-0.0679233,VALID,17.7209,VALID,8,VALID,1.02362,
2008-07-22, 01:59:00,VALID,917.614,VALID,0,VALID,100,VALID,-0.0679233,VALID,17.7473,VALID,7,VALID,1.27865,
2008-07-22, 02:00:00,VALID,917.602,VALID,0,VALID,100,VALID,-0.0679233,VALID,17.7443,VALID,12,VALID,1.30842,
2008-07-22, 02:01:00,VALID,917.581,VALID,0,VALID,100,VALID,-0.0509425,VALID,17.7309,VALID,12,VALID,1.57626,
2008-07-22, 02:02:00,VALID,917.573,VALID,0,VALID,100,VALID,-0.0679233,VALID,17.764,VALID,6,VALID,1.24944,
2008-07-22, 02:03:00,VALID,917.571,VALID,0,VALID,100,VALID,-0.0679233,VALID,17.7925,VALID,1,VALID,1.28359,
2008-07-22, 02:04:00,VALID,917.561,VALID,0,VALID,100,VALID,-0.0849042,VALID,17.8254,VALID,10,VALID,1.40153,
2008-07-22, 02:05:00,VALID,917.542,VALID,0,VALID,100,VALID,-0.0679233,VALID,17.8119,VALID,3,VALID,1.31917,
2008-07-22, 02:06:00,VALID,917.523,VALID,0,VALID,100,VALID,-0.0849042,VALID,17.8184,VALID,12,VALID,1.0745,
2008-07-22, 02:07:00,VALID,917.492,VALID,0,VALID,100,VALID,-0.0509425,VALID,17.8055,VALID,5,VALID,1.06079,
2008-07-22, 02:08:00,VALID,917.467,VALID,0,VALID,100,VALID,-0.0509425,VALID,17.7955,VALID,15,VALID,1.31032,
2008-07-22, 02:09:00,VALID,917.447,VALID,0,VALID,100,VALID,-0.101885,VALID,17.7698,VALID,12,VALID,1.27362,
2008-07-22, 02:10:00,VALID,917.44,VALID,0,VALID,100,VALID,-0.101885,VALID,17.7374,VALID,18,VALID,0.672805,
2008-07-22, 02:11:00,VALID,917.417,VALID,0,VALID,100,VALID,-0.0509425,VALID,17.7052,VALID,3,VALID,0.440589,
2008-07-22, 02:12:00,VALID,917.409,VALID,0,VALID,100,VALID,-0.0849042,VALID,17.6917,VALID,360,VALID,0.0154433,
2008-07-22, 02:13:00,VALID,917.399,VALID,0,VALID,100,VALID,-0.0849042,VALID,17.6825,VALID,359,VALID,0.18316,
2008-07-22, 02:14:00,VALID,917.384,VALID,0,VALID,100,VALID,-0.0849042,VALID,17.6825,VALID,7,VALID,0.0833333,
2008-07-22, 02:15:00,VALID,917.385,VALID,0,VALID,100,VALID,-0.101885,VALID,17.6537,VALID,7,VALID,0,
2008-07-22, 02:16:00,VALID,917.354,VALID,0,VALID,100,VALID,-0.118866,VALID,17.6148,VALID,7,VALID,0,
2008-07-22, 02:17:00,VALID,917.338,VALID,0,VALID,100,VALID,-0.0849042,VALID,17.6016,VALID,7,VALID,0,
2008-07-22, 02:18:00,VALID,917.331,VALID,0,VALID,100,VALID,-0.101885,VALID,17.5625,VALID,358,VALID,0.103016,
2008-07-22, 02:19:00,VALID,917.328,VALID,0,VALID,100,VALID,-0.101885,VALID,17.5141,VALID,276,VALID,0,
2008-07-22, 02:20:00,VALID,917.319,VALID,0,VALID,100,VALID,-0.101885,VALID,17.5307,VALID,328,VALID,0.712391,
2008-07-22, 02:21:00,VALID,917.322,VALID,0,VALID,100,VALID,-0.101885,VALID,17.6208,VALID,353,VALID,0.593178,
2008-07-22, 02:22:00,VALID,917.338,VALID,0,VALID,100,VALID,-0.0849042,VALID,17.6503,VALID,7,VALID,0.115141,
2008-07-22, 02:23:00,VALID,917.338,VALID,0,VALID,100,VALID,-0.0849042,VALID,17.5921,VALID,29,VALID,0.0386905,
2008-07-22, 02:24:00,VALID,917.336,VALID,0,VALID,100,VALID,-0.101885,VALID,17.5363,VALID,29,VALID,0,
2008-07-22, 02:25:00,VALID,917.344,VALID,0,VALID,100,VALID,-0.0849042,VALID,17.5558,VALID,15,VALID,0,
2008-07-22, 02:26:00,VALID,917.336,VALID,0,VALID,100,VALID,-0.101885,VALID,17.6014,VALID,5,VALID,0.146839,
2008-07-22, 02:27:00,VALID,917.327,VALID,0,VALID,100,VALID,-0.101885,VALID,17.6269,VALID,13,VALID,0.917081,
2008-07-22, 02:28:00,VALID,917.322,VALID,0,VALID,100,VALID,-0.101885,VALID,17.6792,VALID,13,VALID,0.898047,
2008-07-22, 02:29:00,VALID,917.306,VALID,0,VALID,100,VALID,-0.101885,VALID,17.7052,VALID,6,VALID,0.933503,
2008-07-22, 02:30:00,VALID,917.302,VALID,0,VALID,100,VALID,-0.135847,VALID,17.7121,VALID,4,VALID,0.941692,
2008-07-22, 02:31:00,VALID,917.299,VALID,0,VALID,100,VALID,-0.118866,VALID,17.7512,VALID,5,VALID,0.931818,
2008-07-22, 02:32:00,VALID,917.297,VALID,0,VALID,100,VALID,-0.135847,VALID,17.7119,VALID,15,VALID,0.903764,
2008-07-22, 02:33:00,VALID,917.302,VALID,0,VALID,100,VALID,-0.101885,VALID,17.7017,VALID,8,VALID,0.903971,
2008-07-22, 02:34:00,VALID,917.29,VALID,0,VALID,100,VALID,-0.101885,VALID,17.7244,VALID,12,VALID,1.05885,
2008-07-22, 02:35:00,VALID,917.285,VALID,0,VALID,100,VALID,-0.135847,VALID,17.6989,VALID,21,VALID,1.1121,
2008-07-22, 02:36:00,VALID,917.284,VALID,0,VALID,100,VALID,-0.101885,VALID,17.7149,VALID,17,VALID,1.32698,
2008-07-22, 02:37:00,VALID,917.279,VALID,0,VALID,100,VALID,-0.0679233,VALID,17.7313,VALID,12,VALID,1.29287,
2008-07-22, 02:38:00,VALID,917.271,VALID,0,VALID,100,VALID,-0.118866,VALID,17.751,VALID,13,VALID,1.4521,
2008-07-22, 02:39:00,VALID,917.267,VALID,0,VALID,100,VALID,-0.118866,VALID,17.754,VALID,10,VALID,1.23986,
2008-07-22, 02:40:00,VALID,917.268,VALID,0,VALID,100,VALID,-0.118866,VALID,17.7607,VALID,21,VALID,1.41388,
2008-07-22, 02:41:00,VALID,917.262,VALID,0,VALID,100,VALID,-0.135847,VALID,17.764,VALID,15,VALID,1.36501,
2008-07-22, 02:42:00,VALID,917.263,VALID,0,VALID,100,VALID,-0.118866,VALID,17.7478,VALID,11,VALID,1.60194,
2008-07-22, 02:43:00,VALID,917.284,VALID,0,VALID,100,VALID,-0.135847,VALID,17.7184,VALID,15,VALID,0.954687,
2008-07-22, 02:44:00,VALID,917.3,VALID,0,VALID,100,VALID,-0.135847,VALID,17.6996,VALID,13,VALID,0.92359,
2008-07-22, 02:45:00,VALID,917.308,VALID,0,VALID,100,VALID,-0.135847,VALID,17.7153,VALID,7,VALID,0.902444,
2008-07-22, 02:46:00,VALID,917.316,VALID,0,VALID,100,VALID,-0.118866,VALID,17.7147,VALID,12,VALID,1.01199,
2008-07-22, 02:47:00,VALID,917.338,VALID,0,VALID,100,VALID,-0.101885,VALID,17.7512,VALID,19,VALID,1.09896,
2008-07-22, 02:48:00,VALID,917.364,VALID,0,VALID,100,VALID,-0.101885,VALID,17.7313,VALID,15,VALID,1.01711,
2008-07-22, 02:49:00,VALID,917.385,VALID,0,VALID,100,VALID,-0.118866,VALID,17.764,VALID,22,VALID,0.895349,
2008-07-22, 02:50:00,VALID,917.392,VALID,0,VALID,100,VALID,-0.101885,VALID,17.761,VALID,15,VALID,0.894804,
2008-07-22, 02:51:00,VALID,917.416,VALID,0,VALID,100,VALID,-0.135847,VALID,17.7832,VALID,15,VALID,1.27183,
2008-07-22, 02:52:00,VALID,917.421,VALID,0,VALID,100,VALID,-0.118866,VALID,17.8119,VALID,19,VALID,1.15572,
2008-07-22, 02:53:00,VALID,917.43,VALID,0,VALID,100,VALID,-0.135847,VALID,17.8224,VALID,8,VALID,0.837984,
2008-07-22, 02:54:00,VALID,917.438,VALID,0,VALID,100,VALID,-0.101885,VALID,17.8156,VALID,18,VALID,0.659255,
2008-07-22, 02:55:00,VALID,917.456,VALID,0,VALID,100,VALID,-0.135847,VALID,17.7964,VALID,11,VALID,0.515816,
2008-07-22, 02:56:00,VALID,917.475,VALID,0,VALID,100,VALID,-0.0169808,VALID,17.8145,VALID,5,VALID,0.720656,
2008-07-22, 02:57:00,VALID,917.49,VALID,0,VALID,100,VALID,-0.0509425,VALID,17.8208,VALID,8,VALID,0,
2008-07-22, 02:58:00,VALID,917.506,VALID,0,VALID,100,VALID,0,VALID,17.8337,VALID,8,VALID,0,
2008-07-22, 02:59:00,VALID,917.514,VALID,0,VALID,100,VALID,-0.0169808,VALID,17.8405,VALID,13,VALID,0.302326,
2008-07-22, 03:00:00,VALID,917.505,VALID,0,VALID,100,VALID,-0.0339617,VALID,17.8374,VALID,15,VALID,0.851563,
2008-07-22, 03:01:00,VALID,917.489,VALID,0,VALID,100,VALID,-0.0509425,VALID,17.8666,VALID,15,VALID,1.00837,
2008-07-22, 03:02:00,VALID,917.49,VALID,0,VALID,100,VALID,-0.0169808,VALID,17.9055,VALID,15,VALID,0.971168,
2008-07-22, 03:03:00,VALID,917.45,VALID,0,VALID,100,VALID,-0.0169808,VALID,17.9049,VALID,13,VALID,0.980923,
2008-07-22, 03:04:00,VALID,917.431,VALID,0,VALID,100,VALID,-0.0169808,VALID,17.9148,VALID,16,VALID,1.16578,
2008-07-22, 03:05:00,VALID,917.385,VALID,0,VALID,100,VALID,-0.0339617,VALID,17.9049,VALID,20,VALID,1.35547,
2008-07-22, 03:06:00,VALID,917.354,VALID,0,VALID,100,VALID,-0.0169808,VALID,17.9181,VALID,26,VALID,1.71911,
2008-07-22, 03:07:00,VALID,917.345,VALID,0,VALID,100,VALID,-0.0339617,VALID,17.931,VALID,15,VALID,1.59339,
2008-07-22, 03:08:00,VALID,917.329,VALID,0,VALID,100,VALID,-0.0169808,VALID,17.9607,VALID,13,VALID,1.38188,
2008-07-22, 03:09:00,VALID,917.308,VALID,0,VALID,100,VALID,-0.0339617,VALID,17.9604,VALID,354,VALID,1.55164,
2008-07-22, 03:10:00,VALID,917.278,VALID,0,VALID,100,VALID,0,VALID,17.9797,VALID,10,VALID,1.25651,
2008-07-22, 03:11:00,VALID,917.249,VALID,0,VALID,100,VALID,-0.101885,VALID,18.0003,VALID,11,VALID,1.34013,
2008-07-22, 03:12:00,VALID,917.23,VALID,0,VALID,100,VALID,-0.101885,VALID,18.0172,VALID,357,VALID,0.804688,
2008-07-22, 03:13:00,VALID,917.196,VALID,0,VALID,100,VALID,-0.101885,VALID,18.0042,VALID,1,VALID,0.990234,
2008-07-22, 03:14:00,VALID,917.177,VALID,0,VALID,100,VALID,-0.152827,VALID,17.9877,VALID,15,VALID,1.00636,
2008-07-22, 03:15:00,VALID,917.161,VALID,0,VALID,100,VALID,-0.118866,VALID,17.9782,VALID,19,VALID,1.09983,
2008-07-22, 03:16:00,VALID,917.157,VALID,0,VALID,100,VALID,-0.135847,VALID,17.965,VALID,22,VALID,1.06753,
2008-07-22, 03:17:00,VALID,917.159,VALID,0,VALID,100,VALID,-0.135847,VALID,17.9618,VALID,32,VALID,0.467297,
2008-07-22, 03:18:00,VALID,917.162,VALID,0,VALID,100,VALID,-0.186789,VALID,17.9456,VALID,36,VALID,0,
2008-07-22, 03:19:00,VALID,917.171,VALID,0,VALID,100,VALID,-0.135847,VALID,17.9393,VALID,36,VALID,0,
2008-07-22, 03:20:00,VALID,917.139,VALID,0,VALID,100,VALID,-0.135847,VALID,17.9229,VALID,30,VALID,0.109375,
2008-07-22, 03:21:00,VALID,917.149,VALID,0,VALID,100,VALID,-0.118866,VALID,17.9099,VALID,4,VALID,0.209847,
2008-07-22, 03:22:00,VALID,917.132,VALID,0,VALID,100,VALID,-0.101885,VALID,17.8905,VALID,13,VALID,0.915451,
2008-07-22, 03:23:00,VALID,917.13,VALID,0,VALID,100,VALID,-0.135847,VALID,17.8939,VALID,17,VALID,0.870999,
2008-07-22, 03:24:00,VALID,917.12,VALID,0,VALID,100,VALID,-0.152827,VALID,17.8905,VALID,20,VALID,0.986133,
2008-07-22, 03:25:00,VALID,917.118,VALID,0,VALID,100,VALID,-0.118866,VALID,17.887,VALID,19,VALID,0.928013,
2008-07-22, 03:26:00,VALID,917.102,VALID,0,VALID,100,VALID,-0.0679233,VALID,17.8902,VALID,20,VALID,0.740767,
2008-07-22, 03:27:00,VALID,917.093,VALID,0,VALID,100,VALID,-0.118866,VALID,17.8965,VALID,19,VALID,0.587891,
2008-07-22, 03:28:00,VALID,917.065,VALID,0,VALID,100,VALID,-0.118866,VALID,17.9164,VALID,19,VALID,0.301054,
2008-07-22, 03:29:00,VALID,917.055,VALID,0,VALID,100,VALID,-0.118866,VALID,17.9101,VALID,19,VALID,0,
2008-07-22, 03:30:00,VALID,917.041,VALID,0,VALID,100,VALID,-0.135847,VALID,17.9099,VALID,19,VALID,0,
2008-07-22, 03:31:00,VALID,917.027,VALID,0,VALID,100,VALID,-0.135847,VALID,17.9134,VALID,16,VALID,0.196875,
2008-07-22, 03:32:00,VALID,917.016,VALID,0,VALID,100,VALID,-0.101885,VALID,17.9127,VALID,7,VALID,0.683984,
2008-07-22, 03:33:00,VALID,916.993,VALID,0,VALID,100,VALID,-0.0509425,VALID,17.9257,VALID,354,VALID,0.318924,
2008-07-22, 03:34:00,VALID,916.972,VALID,0,VALID,100,VALID,-0.118866,VALID,17.9289,VALID,352,VALID,0,
2008-07-22, 03:35:00,VALID,916.951,VALID,0,VALID,100,VALID,-0.118866,VALID,17.9653,VALID,358,VALID,0,
2008-07-22, 03:36:00,VALID,916.924,VALID,0,VALID,100,VALID,-0.135847,VALID,17.9653,VALID,13,VALID,0.279251,
2008-07-22, 03:37:00,VALID,916.893,VALID,0,VALID,100,VALID,-0.101885,VALID,17.9653,VALID,19,VALID,0.662157,
2008-07-22, 03:38:00,VALID,916.86,VALID,0,VALID,100,VALID,-0.101885,VALID,17.9583,VALID,346,VALID,0.56612,
2008-07-22, 03:39:00,VALID,916.85,VALID,0,VALID,100,VALID,-0.135847,VALID,17.975,VALID,360,VALID,0.744673,
2008-07-22, 03:40:00,VALID,916.822,VALID,0,VALID,100,VALID,-0.101885,VALID,17.9745,VALID,353,VALID,0.814732,
2008-07-22, 03:41:00,VALID,916.811,VALID,0,VALID,100,VALID,-0.101885,VALID,17.9683,VALID,354,VALID,0.609189,
2008-07-22, 03:42:00,VALID,916.819,VALID,0,VALID,100,VALID,-0.118866,VALID,17.9685,VALID,10,VALID,0.588299,